Regional Weather Roundup
Issued by NWS Charleston, SC

Current Version | Previous Version | Graphics & Text | Print | Product List | Glossary On
Versions: 1 2 3 4 5 6 7 8 9 10 11 12 13 14 15 16 17 18 19 20 21 22 23 24 25 26 27 28 29 30 31 32 33 34 35 36 37 38 39 40 41 42 43 44 45 46 47 48 49 50
000
ASUS42 KCHS 302025
RWRCHS

REGIONAL WEATHER ROUNDUP
NATIONAL WEATHER SERVICE CHARLESTON SC
400 PM EDT THU OCT 30 2014

NOTE: "FAIR" INDICATES FEW OR NO CLOUDS BELOW 12,000 FEET WITH NO
SIGNIFICANT WEATHER AND/OR OBSTRUCTIONS TO VISIBILITY.

NOT ALL STATIONS ARE QUALITY CONTROLLED BY THE NATIONAL
WEATHER SERVICE. USE DATA WITH CAUTION...ESPECIALLY
DEWPOINT OBSERVATIONS.

SCZ027-030-031-034>040-042>050-302100-
...SOUTH CAROLINA...

CITY           SKY/WX    TMP DP  RH WIND       PRES   REMARKS
N CHARLESTON   MOSUNNY   70  56  61 E12       29.94R
WATERFRONT PRK   N/A     66 N/A N/A NE15        N/A
FORT JOHNSON   NOT AVBL
JOHNS ISLAND   MOCLDY    68  63  83 NE9       29.94S
PINOPOLIS      NOT AVBL
MONCKS CORNER  MOCLDY    68  59  73 E5        29.95R
SUMMERVILLE    FAIR      70  57  64 NE6       29.95S
BEAUFORT MCAS  MOSUNNY   76  55  48 N7        29.90S
BEAUFORT ARPT  FAIR      70  59  68 NE5       29.92S
HILTON HEAD IS MOSUNNY   70  59  68 NE3       29.94F
GEORGETOWN     NOT AVBL
WALTERBORO     MOCLDY    73  48  40 NE8       29.94S
ORANGEBURG     SUNNY     72  46  39 E7        29.94F
BARNWELL       FAIR      73  46  38 NE3       29.94F
AIKEN          FAIR      70  45  40 N6        29.98S
MANNING        FAIR      72  52  49 N7        29.94S
KINGSTREE      NOT AVBL
COLUMBIA       MOSUNNY   72  40  31 NE5       29.94F
SUMTER         SUNNY     71  46  41 NE5       29.93F
FLORENCE       MOSUNNY   72  46  39 N8        29.94F
MYRTLE BEACH   MOSUNNY   70  54  56 N6        29.94F
N MYRTLE BEACH MOSUNNY   71  51  49 NE9       29.94S

$$

GAZ063-065-086>088-099>101-113>116-118-119-134-136>141-150-302100-
...GEORGIA...

CITY           SKY/WX    TMP DP  RH WIND       PRES   REMARKS
SAVANNAH ARPT  MOSUNNY   76  53  44 N7        29.92F
HUNTER AAF     MOSUNNY   75  56  52 VRB2      29.90F
FORT STEWART   CLOUDY    72  55  53 N7        29.91F
STATESBORO     NOT AVBL
SYLVANIA       CLEAR     78  55  44 NE5       29.93F
CLAXTON        FAIR      73  54  49 CALM      29.92F
THOMSON        SUNNY     71  48  44 NE7       30.00S
AUGUSTA-BUSH   SUNNY     73  39  29 NE7       29.94F
AUGUSTA-DANIEL SUNNY     72  39  30 VRB5      29.95F
SWAINSBORO     FAIR      77  48  36 CALM      29.93F
VIDALIA        SUNNY     73  54  49 NW5       29.92F
ALMA           PTSUNNY   75  43  31 NW9       29.91F
WAYCROSS       PTSUNNY   76  50  40 NW6       29.92S
JESUP          FAIR      79  54  41 W5        29.91S
BRUNSWICK      CLOUDY    73  63  68 E7        29.91S
SAINT SIMONS   PTSUNNY   73  64  73 E10       29.91S

$$

SCZ027-028-034-036>038-045-046-048>050-GAZ119-141-302100-
...LAKE AND SUPPLEMENTAL COASTAL OBSERVATIONS...

STATION/POSITION TIME  TEMP    WIND        PRES    WAVE   SWELL
                       AIR SEA DIR/SP/G            HT/PER HT/PER/DIR
                 (UTC) (F)     (DEG/KT/KT) (MB)    (FT/S) (FT/S/D)
UPR LAKE MARION  NOT AVBL
WINYAH BAY       2000   64      10/  4     1014.0S
LAKE MURRAY      1900   69      40/  2/  3 1013.9F
ACE BASIN NERRS  2000   74      20/  2     1013.0S
FORT PULASKI     2000   69      70/  9/ 10 1013.3F
SAPELO ISLAND    NOT AVBL

$$

ANZ835-935-AMZ111-154-330-350-352-354-374-450-454-472-302100-
...C-MAN AND BUOY OBSERVATIONS...

STATION/POSITION TIME  TEMP    WIND        PRES    WAVE   SWELL
                       AIR SEA DIR/SP/G            HT/PER HT/PER/DIR
                 (UTC) (F)     (DEG/KT/KT) (MB)    (FT/S) (FT/S/D)
FOLLY BEACH CMAN 2000   65      40/ 13/ 15 1014.3R
BUOY 41004       2000   70 77   10/ 16/ 19 1012.1F   3/ 4
BUOY 41008       2000   69 74   30/ 10/ 14 1012.6F   1/ 3
5E ST. MARYS GA  2000      77                N/A     1/ 9
FRYING PAN BUOY  2000   66 72   30/ 17/ 21 1013.4F   5/ 6
BUOY 41025       2000   67     360/ 17/ 23 1013.1    4/ 5   2/ 40/ 8
CAPE LOOKOUT NC  2000   65      30/ 14/ 18 1014.0F
BUOY 41002       1906   74 77   10/  8/ 10 1012.8    3/ 5   2/270/ 5
BUOY 41010       2000   79 83  330/  4/  8 1012.2F   3/ 7   3/100/ 7
BUOY 41012       NOT AVBL
ST AUGUSTINE FL  2000   72      20/  8/  9 1013.0F
CAPERS NEARSHORE 1900   65      20/ 14/ 17   N/A
FRIPP NEARSHORE  NOT AVBL


$$



USA.gov is the U.S. government's official web portal to all federal, state and local government web resources and services.